This demonstration page uses our WeatherBlox Daily Observations layout. Learn more.

Left ArrowRight Arrow

36.19886, -115.1175

Hourly Observations for February 22, 2021

Temp ( °F °C ) Dew Point ( °F °C ) Humidity (%) Winds ( mph kmh ) Pressure ( in mb ) Visibility ( mi km ) Precip ( " mm )
12:53 am 00:53 Clear 48 8.9 12 -11.1 23 23 NNW 9 15 30.42 1030 10 16 N/A
1:53 am 01:53 Clear 47 8.3 12 -11.1 24 24 NNW 8 13 30.41 1030 10 16 N/A
2:53 am 02:53 Clear 49 9.4 12 -11.1 22 22 NW 9 15 30.40 1030 10 16 N/A
3:53 am 03:53 Clear 47 8.3 12 -11.1 24 24 WNW 5 7 30.40 1030 10 16 N/A
4:53 am 04:53 Clear 46 7.8 12 -11.1 25 25 WNW 7 11 30.39 1029 10 16 N/A
5:53 am 05:53 Clear 47 8.3 13 -10.6 25 25 NNW 9 15 30.41 1030 10 16 N/A
6:53 am 06:53 Sunny 48 8.9 14 -10 25 25 NNW 15 24 30.42 1030 10 16 N/A
7:53 am 07:53 Sunny 52 11.1 15 -9.4 23 23 N 10 17 30.44 1031 10 16 N/A
8:53 am 08:53 Sunny 55 12.8 14 -10 20 20 N 12 19 30.43 1031 10 16 N/A
9:53 am 09:53 Sunny 59 15 15 -9.4 18 18 N 9 15 30.41 1030 10 16 N/A
10:53 am 10:53 Sunny 62 16.7 15 -9.4 16 16 NNW 10 17 30.39 1029 10 16 N/A
11:53 am 11:53 Sunny 63 17.2 15 -9.4 15 15 ENE 6 9 30.35 1028 10 16 N/A
12:53 pm 12:53 Sunny 65 18.3 15 -9.4 14 14 SSE 6 9 30.31 1026 10 16 N/A
1:53 pm 13:53 Sunny 66 18.9 15 -9.4 14 14 VRB 3 6 30.27 1025 10 16 N/A
2:53 pm 14:53 Sunny 67 19.4 15 -9.4 13 13 ESE 3 6 30.24 1024 10 16 N/A
3:53 pm 15:53 Sunny 67 19.4 15 -9.4 13 13 VRB 3 6 30.21 1023 10 16 N/A
4:53 pm 16:53 Sunny 67 19.4 16 -8.9 14 14 N N/A 30.19 1022 10 16 N/A
5:53 pm 17:53 Clear 66 18.9 16 -8.9 14 14 N N/A 30.19 1022 10 16 N/A
6:53 pm 18:53 Clear 62 16.7 18 -7.8 18 18 WSW 7 11 30.19 1022 10 16 N/A
7:53 pm 19:53 Clear 59 15 18 -7.8 20 20 WNW 7 11 30.17 1022 10 16 N/A
8:53 pm 20:53 Clear 55 12.8 18 -7.8 23 23 NW 3 6 30.17 1022 10 16 N/A
9:53 pm 21:53 Clear 54 12.2 20 -6.7 26 26 WSW 3 6 30.16 1021 10 16 N/A
10:53 pm 22:53 Clear 54 12.2 19 -7.2 25 25 N 5 7 30.14 1021 10 16 N/A
11:53 pm 23:53 Clear 51 10.6 19 -7.2 28 28 NNW 7 11 30.12 1020 10 16 N/A

Powered by AerisWeather